Location: Castelbiague
(43.0361°N, 0.9246°E)
Time: 04:11:44
(UTC+00:00)

USA 215 - Pass Details

Date: 26 October 2021
Orbit: 1099 x 1109 km, 123.0° (Epoch: 20 November)

Event Time Altitude Azimuth Distance (km) Brightness Sun altitude
Exits shadow 17:39:43 - 47° (NE) 3,555 5.4 -8.5°
Reaches altitude 10° 17:41:16 10° 45° (NE) 2,964 5.0 -8.8°
Maximum altitude 17:47:43 65° 326° (NW) 1,203 3.6 -10.0°
Drops below altitude 10° 17:54:10 10° 246° (WSW) 2,960 6.9 -11.1°
Sets 17:56:40 0° 243° (WSW) 3,917 7.6 -11.6°
